Showing default

LEMUR 2 STELLA, 60533

Orbit data source: Space-Track

LEMUR 2 STELLA, 60533 is a payload satellite owned by Spire (US) in SSO that was launched on Fri, 16 Aug 2024 UTC via an FALCON 9 launch vehicle from the Air Force Western Test Range (AFWTR). Payload-class satellites include a variety of spacecraft equipped with specific instruments for various scientific and technological missions. These include communications satellites like Starlink; space stations such as the ISS; scientific satellites like the Hubble; Earth observation satellites from companies like Planet Labs, Umbra, and HawkEye 360; GPS; miniature CubeSats for education and research; and military/defense satellites.

Loading next visibility...
Identifier
60533, 2024-149BT
Orbit
SSO
Country
Flag of USUS
Related business
Manufacturer
Spire/Glasgow
Mission
Operational Commercial Com/MetRO
Bus & Motor
CUBESAT 3U, Unknown motor
Mass
7.6 kg wet, 7.6 kg dry
Launch date (UTC)
2024-08-16 (1 year ago)
Launch vehicle
FALCON 9
Launch site
Air Force Western Test Range (AFWTR)
Object type
Payload
Rocket body
Debris
Shape & HBR
Box + 2 Pan, 0.5 m
Radar Cross Section
0.063 m², Medium (>0.1 m² and < 1m²)

Expand to show TLE details & history
Last TLE update: 5 hours ago

TLE from 5 hours ago
0 LEMUR 2 STELLA
1 60533U 24149BT  25312.19944708  .00017246  00000-0  11987-2 0  9990
2 60533  97.6933  29.4566 0001927  98.0660 262.0785 15.05584537 67170
Epoch: 2025-11-08T04:47Z
TLE epoch observation values (Epoch: 2025-11-08T04:47:12.227Z)
Latitude
-0.00005°
Longitude
-89.97682°
Altitude
552.959 km
Speed
7.585 km/s
True Right ascension
01h 57m 49s
True Declination
0° 00' 00"
Sunlit
Object was in full shadow at epoch
Visualization orbit readout
Latitude
Unknown
Longitude
Unknown
Altitude
Unknown
Speed
Unknown
Apparent Right ascension
Unknown
Apparent Declination
Unknown
Sunlit
N/A
Visualization observer readout
Local Sidereal Time
06:24:41
Azimuth
Unknown
Elevation
Unknown
Doppler factor
Unknown
Orbital elements
Apogee altitude
548.044 km
Perigee altitude
545.375 km
Semi-major axis
6,924.846 km
Eccentricity
0.00019
Inclination
97.6933°
RAAN
29.4566°
Arg. of periapsis
98.066°
True anomaly
262.05663°
Mean anomaly
262.0785°
Eccentric anomaly
262.06756°
Mean motion
3.76641 °/min
Orbital period
95.58 mins
BSTAR
0.0011987
Loading maneuver chart data...
Computing Atmospheric mass density...
Loading historical data...
Loading historical data...
Loading historical data...
Loading historical data...
Loading historical data...
Loading historical data...
Loading historical data...

Documentation

Showing up to 5 results
|